Regional Weather Roundup
Issued by NWS Newport/Morehead, NC

Current Version | Previous Version | Text Only | Print | Product List | Glossary On
Versions: 1 2 3 4 5 6 7 8 9 10 11 12 13 14 15 16 17 18 19 20 21 22 23 24 25 26 27 28 29 30 31 32 33 34 35 36 37 38 39 40 41 42 43 44 45 46 47 48 49 50
000
ASUS42 KMHX 020325
RWRMHX
WEATHER ROUNDUP FOR EASTERN NORTH CAROLINA
NATIONAL WEATHER SERVICE NEWPORT/MOREHEAD CITY NC
1100 PM EDT TUE SEP 01 2015

NOTE: "FAIR" INDICATES FEW OR NO CLOUDS BELOW 12,000 FEET
WITH NO SIGNIFICANT WEATHER AND/OR OBSTRUCTIONS TO VISIBILITY

NCZ015>017-031-032-045>047-102-103-020400-
NORTH COAST

CITY           SKY/WX    TMP DP  RH WIND       PRES   REMARKS
EDENTON        CLEAR     72  70  94 CALM      30.07S
ELIZABETH CITY CLEAR     73  72  96 S3        30.07R
KITTY HAWK     PTCLDY    74  68  83 CALM      30.06S
MANTEO         PTCLDY    73  72  96 CALM      30.07S

$$

NCZ045>047-081-094-103-104-020400-
CENTRAL COAST

CITY           SKY/WX    TMP DP  RH WIND       PRES   REMARKS
FRISCO         CLEAR     74  72  93 CALM      30.07S
SWANQUARTER      N/A     75 N/A N/A E1        30.03S

$$

NCZ095-097-098-100-101-020400-
SOUTHERN COAST

CITY           SKY/WX    TMP DP  RH WIND       PRES   REMARKS
BEAUFORT       CLEAR     77  76  96 NW3       30.07S
CEDAR ISLAND     N/A     77 N/A N/A S3        30.09S
JACKSONVILLE   CLEAR     75  73  93 SW5       30.06S
PINEY ISLAND   CLEAR    N/A N/A N/A SW3       30.06F
WILMINGTON     PTCLDY    77  74  90 CALM      30.08R


$$

NCZ011>013-027>030-043-044-078>080-089-090>093-098-020400-
COASTAL PLAIN

CITY           SKY/WX    TMP DP  RH WIND       PRES   REMARKS
AHOSKIE        CLEAR     69  69  97 CALM      30.07S
CLINTON        CLEAR     74  73  95 CALM      30.08S
ELIZABETHTOWN  PTCLDY    77  74  91 SW3       30.08S
GOLDSBORO      CLEAR     76  71  86 CALM      30.06R
GREENVILLE     CLEAR     73  73 100 CALM      30.08S FOG
HAVELOCK       CLEAR     75  73  93 SW6       30.08S
KENANSVILLE      N/A     73  71  96 CALM      30.08S
KINSTON        CLEAR     72  71  96 CALM      30.08S
NEW BERN       CLEAR     74  71  91 CALM      30.08S
RICHLANDS      CLEAR     73  68  83 CALM      30.08S
ROCKY MOUNT    CLEAR     73  71  93 CALM      30.08R
WASHINGTON     CLEAR     72  71  95 CALM      30.07S
WHITEVILLE     PTCLDY    76  73  89 CALM      30.08S

$$

AMZ130-135-150-152-154-156-158-170-250-252-270-ANZ085-086-088-633-658-670-020400-
MARINE OBSERVATIONS

STATION/POSITION TIME  TEMP    WIND        PRES    WAVE   SWELL
                       AIR SEA DIR/SP/G            HT/PER HT/PER
                 (UTC) (F)     (DEG/KT/KT) (MB)    (FT/S) (FT/S)
CHESAPEAKE LIGHT 0300   77     200/  8/  8 1018.5
64 E VA BEACH    0250   78 79   CALM  /  2 1017.5    2/ 8   2/ 8
DUCK             0300   79 78  140/  4/  5 1017.3
2 E DUCK         0211      81                N/A     2/ 9
OREGON INLET     0300   77 83   60/  2/  2 1017.9
13E OREGON INLT  0300      80                N/A     2/ 9
HATTERAS CG      0300   79 83   CALM  /  1 1017.9
DIAMOND BUOY     0250   80 84  300/  6/  8 1018.0    2/10   2/10
CAPE LOOKOUT     0300   79     270/  7/  8 1017.9
BEAUFORT LAB     0300   79 80  260/  2/  4 1017.6
30 SE NEW RVR IN 0208   80 82  270/  8/ 12 1018.5
30 SE NEW RVR IN 0225      82                N/A     2/ 6
27 SE WRIGHTSVLE 0300   78 82  260/  8/ 10   N/A
5 SE WRIGHTSVLE  0208   81 82  230/ 10/ 14 1018.3
225 S CAPE HAT   0250   84 85  250/  8/ 10 1018.6    3/ 6   3/ 6
41 SE CHARLESTON 0250   82 83  140/  8/  8 1018.4    2/ 7   2/ 7

$$



USA.gov is the U.S. government's official web portal to all federal, state and local government web resources and services.